User: anonymous   Login
Location: Unspecified
(0.0000°N, 0.0000°E)
Time: 08:03:07
(UTC+00:00)
Language:

SAUDISAT 3 - Orbit

View from above orbital plane
View from above orbital plane
View from above satellite
View from above satellite

Ground track
Ground track

The orbit data is extracted from the following two-line orbital elements,

1 31118U 07012B   19345.84031751  .00000004  00000-0  86900-5 0  9997
2 31118  97.8427 306.2641 0013875 243.2810 116.6977 14.69149166678273
Epoch (UTC): 11 December 2019 20:10:03
Eccentricity: 0.0013875
inclination: 97.8427°
perigee height: 654 km
apogee height: 673 km
right ascension of ascending node: 306.2641°
argument of perigee: 243.2810°
revolutions per day: 14.69149166
mean anomaly at epoch: 116.6977°
orbit number at epoch: 67827

The dashed part of the orbit path shows where the satellite is in the earth's shadow,  

DLR